This is the latest recevied weather packets stored in our database for station/object WC4PEM-6. If no packets are shown the sender has not sent any weather packets the latest 10 day(s).
| Time | Temp. | Humidity | Pressure | Rain* | Wind** | Luminosity | Snow |
|---|---|---|---|---|---|---|---|
| 1777639223 | 23.33° C | 90% | 1012.2 hPa | 0 mm | - | - | - |
| 1777639217 | 23.89° C | 89% | 1012.2 hPa | 0 mm | - | - | - |
| 1777638917 | 23.33° C | 90% | 1012.2 hPa | 0 mm | - | - | - |
| 1777638617 | 23.33° C | 91% | 1012.1 hPa | 0 mm | - | - | - |
| 1777638317 | 22.78° C | 92% | 1012.2 hPa | 0 mm | - | - | - |
| 1777638202 | 21.67° C | 94% | 1012 hPa | 0 mm | - | - | - |
| 1777638017 | 22.78° C | 93% | 1012.1 hPa | 0 mm | - | - | - |
| 1777637717 | 22.22° C | 94% | 1012.1 hPa | 0 mm | - | - | - |
| 1777637537 | 21.67° C | 94% | 1011.9 hPa | 0 mm | - | - | - |
| 1777637417 | 21.67° C | 94% | 1012 hPa | 0 mm | - | - | - |
| 1777637117 | 21.67° C | 94% | 1011.9 hPa | 0 mm | - | - | - |
| 1777636904 | 21.67° C | 94% | 1011.9 hPa | 0 mm | - | - | - |
| 1777636817 | 21.67° C | 93% | 1011.9 hPa | 0 mm | - | - | - |
| 1777636517 | 21.67° C | 93% | 1011.9 hPa | 0 mm | - | - | - |
| 1777636217 | 21.67° C | 94% | 1011.9 hPa | 0 mm | - | - | - |
| 1777635917 | 21.67° C | 94% | 1011.8 hPa | 0 mm | - | - | - |
| 1777635617 | 21.67° C | 94% | 1011.8 hPa | 0 mm | - | - | - |
| 1777635540 | 21.67° C | 94% | 1011.7 hPa | 0 mm | - | - | - |
| 1777635317 | 21.67° C | 94% | 1011.7 hPa | 0 mm | - | - | - |
| 1777635017 | 21.11° C | 94% | 1011.8 hPa | 0 mm | - | - | - |
| 1777634879 | 21.67° C | 94% | 1011.7 hPa | 0 mm | - | - | - |
| 1777634717 | 21.67° C | 94% | 1011.7 hPa | 0 mm | - | - | - |
| 1777634417 | 21.11° C | 94% | 1011.7 hPa | 0 mm | - | - | - |
| 1777634117 | 21.11° C | 94% | 1011.6 hPa | 0 mm | - | - | - |
| 1777633817 | 21.11° C | 94% | 1011.6 hPa | 0 mm | - | - | - |
* Rain latest hour (hover to see other rain measurements)
** Current wind speed in m/s (hover to see current wind gust speed)